Powrót do katalogu

SL-8 R/B

AktywnyPO
NORAD 12139·ROCKET BODY·🇷🇺 Russia

Wystrzelony Jan 16, 1981 z Plesetsk Cosmodrome

Loading…

Następne Przeloty (najbliższe 24 godziny)

TLE

ŚwieżeSource: Space-Track

Epoka: Sep 14, 2026, 08:09 UTC

1 12139U 81003B   26257.33969850  .00010818  00000-0  25409-3 0  9994
2 12139  82.9343 114.7538 0239235 238.9266 118.8295 15.17182250343226

Śledź SL-8 R/B w czasie rzeczywistym z AllMySat

Download on the App Store